www.pogodaiklimat.ru

Погода и климат >> Архив погоды >> Монголия >> Тариат


ПОГОДА в Тариате

  • Прогноз погоды в Тариате
  • Монитор погоды в Тариате

АРХИВ ПОГОДЫ в Тариате

Время (UTC), дата Ветер
(напр.,м/с)
 
Видим.   Явления Облачность Т
(С)
Тd
(С)
f
(%)
Тe
(С)
Тes
(С)
Комфортность P
(гПа)
Po
(гПа)
Тmin
(С)
Tmax
(С)
R
(мм)
R24
(мм)
S
(см)
15 15.09 штиль 0 50 км 3/0
[Ac cast]
+2.0 -4.3 63 +1 +1 1026.4 795.6
18 15.09 штиль 0 50 км 3/0
[Ac cast]
-0.2 -4.1 75 -1 -1 1028.3 795.5
21 15.09 штиль 0 50 км ясно -1.9 -3.9 86 -3 -3 1030.0 795.5
00 16.09 З 1 50 км ясно +0.8 -3.7 72 -1 -0 1028.5 796.3 -2.6
03 16.09 З 3 50 км 4/1 600 м
[Cu hum Ci]
+7.3 -4.0 44 +5 +10 1023.1 796.9
06 16.09 ЮЗ 5 50 км 8/5 600 м
[Cu med, cong Ac lent]
+10.5 -6.3 30 +8 +10 1019.2 796.1
09 16.09 З 7 50 км 6/3 600 м
[Cu hum Ac trans Ci fib]
+10.8 -6.7 29 +8 +9 1018.6 795.8
12 16.09 СЗ 1 50 км 1/0
[Ac lent]
+8.1 -5.1 39 +8 +8 1022.6 797.1 +12.8
15 16.09 штиль 0 50 км ясно +3.7 -3.5 59 +3 +3 1030.0 799.6
18 16.09 З 2 50 км ясно +2.2 -1.7 75 -1 -1 1032.7 800.6
21 16.09 З 1 50 км ясно -2.1 -4.1 86 -4 -4 1037.7 801.3
00 17.09 штиль 0 50 км ясно -1.7 -2.6 94 -3 -3 1038.6 802.3 -3.5
03 17.09 штиль 0 50 км ясно +6.9 -2.9 50 +7 +16 опасность
простуды
1030.9 802.6
06 17.09 З 3 50 км ясно +13.4 -7.3 23 +13 +21 1022.7 800.8
09 17.09 Ю 3 50 км 3/3 600 м
[Cu hum Ci]
+16.1 -8.3 18 +16 +18 1018.7 799.7
12 17.09 Ю 3 50 км 5/0
[Ac lent Ci]
+12.2 -5.9 28 +11 +11 1022.4 799.7 +16.7
15 17.09 З 2 50 км 8/0
[Ac lent Ci]
+9.1 -2.3 45 +8 +8 1026.6 800.8
18 17.09 штиль 0 50 км 9/0
[Ac lent Cs]
+5.3 -4.3 50 +5 +5 1030.2 801.0
21 17.09 штиль 0 50 км 9/0
[As trans]
+1.6 -2.1 76 +1 +1 1033.5 800.8
00 18.09 штиль 0 50 км 9/0
[Ac lent Ci]
+3.3 -3.5 61 +3 +3 1032.4 801.2 +0.7
03 18.09 З 2 50 км 9/6 600 м
[Sc Ac lent]
+11.1 -5.6 31 +10 +12 1025.4 801.3
06 18.09 З 3 50 км 9/9 600 м
[Frnb]
+15.2 -3.4 28 +15 +16 1019.8 799.8
09 18.09 З 5 50 км 9/5 600 м
[Frnb As trans Ci]
+13.6 -1.7 35 +12 +13 1020.1 798.9
12 18.09 З 3 50 км 10/10 600 м
[Sc]
+9.5 +2.0 59 +8 +8 1026.1 800.8 +15.9
15 18.09 З 4 50 км 9/5 600 м
[Sc As trans]
+7.1 +3.7 79 +4 +4 1028.9 801.2
18 18.09 ЮЗ 1 50 км 3/0
[Ac cast]
+5.9 +2.7 80 +5 +5 1029.4 800.8
21 18.09 З 3 50 км 1/0
[Ac lent]
+4.3 +3.2 93 +1 +1 1030.7 800.7
00 19.09 З 3 50 км 3/0
[Ac trans]
+4.4 +3.4 93 +1 +1 1031.9 801.6 +4.0
03 19.09 З 5 50 км 1/1 1000 м
[Cu hum]
+9.5 +0.8 55 +7 +10 1027.2 801.6
06 19.09 ЮЗ 5 50 км 3/3 1000 м
[Cu hum]
+13.0 -3.4 32 +11 +15 1022.9 800.7
09 19.09 З 3 50 км 1/1 1000 м
[Cu hum]
+14.6 -5.6 24 +14 +17 1020.8 800.1
12 19.09 СЗ 1 50 км ясно +8.4 -3.8 42 +8 +8 1027.6 801.2 +15.6
15 19.09 З 1 50 км ясно +5.3 -1.0 64 +4 +4 1032.1 802.4
18 19.09 штиль 0 50 км ясно +1.1 -0.7 88 -0 -0 1036.0 802.4
21 19.09 СЗ 1 50 км ясно +1.6 -0.8 84 -0 -0 1035.2 802.1
00 20.09 штиль 0 50 км ясно +1.9 -0.4 85 +1 +1 1035.4 802.5 +0.1
03 20.09 З 1 50 км 4/0
[Cc]
+8.8 -1.7 48 +9 +15 1028.5 802.1
06 20.09 З 3 50 км 8/0
[Ac trans Ci fib]
+15.2 -3.9 27 +15 +20 1020.7 800.4
09 20.09 Ю 3 50 км 9/4 600 м
[Cu hum Ac lent Ci]
+17.3 -5.0 21 +17 +18 1017.3 799.2
12 20.09 Ю 1 50 км 9/0
[Ac lent Cs]
+12.6 -1.8 37 +13 +13 1021.4 799.2 +18.0
15 20.09 ЮВ 2 50 км 5/0
[Ac lent]
+7.4 -1.9 52 +6 +6 1027.5 800.4
18 20.09 ЮВ 1 50 км 4/0
[Ac lent]
+2.7 -0.5 79 +1 +1 1032.2 800.6
21 20.09 штиль 0 50 км 8/0
[Ac lent Ci]
+3.2 -0.3 78 +2 +2 1031.5 800.4
00 21.09 Ю 1 50 км 9/0
[Ac cast Ci]
+4.1 -0.1 74 +3 +3 1031.3 801.0 +0.8
03 21.09 З 3 50 км 1/0
[Ci]
+12.2 -5.4 29 +11 +16 1024.1 801.1
06 21.09 З 5 50 км 1/1 600 м
[Cu hum]
+17.9 -7.5 17 +18 +22 1017.3 799.6
09 21.09 ЮЗ 3 50 км 3/3 600 м
[Cu med, cong]
+20.2 -9.1 13 +20 +22 1014.2 798.7
12 21.09 СЗ 2 50 км 4/0
[Ac lent]
+15.6 -7.4 20 +16 +16 1019.5 799.8 +20.4
15 21.09 СЗ 1 50 км ясно +9.4 -3.6 40 +9 +9 1026.8 801.2
18 21.09 З 2 50 км ясно +3.8 -1.7 67 +1 +1 1032.4 801.7
21 21.09 З 1 50 км ясно +4.4 -0.5 70 +3 +3 1031.6 802.0
00 22.09 З 1 50 км 8/0
[Ac lent Ci]
+4.6 -0.9 67 +4 +4 1027.8 802.9 +1.0
03 22.09 З 1 50 км 1/0
[Ci fib]
+10.9 -5.0 32 +11 +18 1028.3 803.5
06 22.09 З 1 50 км 3/3 600 м
[Cu med, cong Ci]
+18.7 -7.3 16 +20 +27 1020.0 802.3
09 22.09 ЮЗ 1 50 км 3/3 600 м
[Cu hum]
+19.6 -8.8 14 +20 +23 1018.0 801.3
12 22.09 штиль 0 50 км 3/0
[Ac cast Ci]
+11.8 -6.7 27 +12 +12 1025.7 802.0 +19.9

 

Местоположение метеостанции Тариат (Монголия): широта 48.08 долгота 99.55 высота над уровнем моря 2041 м.

В архиве по умолчанию представлена погода в Тариате за последнюю неделю. Архивные данные за месяц целиком и за предыдущие месяцы, начиная с января 2011 года, Вы можете получить, выбрав интересующий диапазон дат из раскрывающегося списка и нажав кнопку "Ввод!".


*Определитесь, кто Вы:
робот инопланетянин человек

Внимание! Время в таблицах - всемирное. Для получения местного времени необходимо прибавить поправку, которая равна 8 ч.

Смотрите также архив погоды в соседних городах и на ближайших метеорологических станциях:

Погода в Тосонцэнгэле (Монголия) (123 км)
Погода в Эрдэнэмандале (Монголия) (144 км)
Погода в Цэцэрлэге (Монголия) (159 км)
Погода в Галууте (Монголия) (160 км)
Погода в Баянбулаге (Монголия) (178 км)
Погода в Мурэне (Монголия) (178 км)
Погода в Улиастае (Монголия) (205 км)
Погода в Баянхонгоре (Монголия) (233 км)
Погода ву Тариалане (Монголия) (244 км)
Погода в Хатгале (Монголия) (265 км)

Пояснения к столбцам:

Ветер - указаны скорость ветра в м/с - средняя за 10 мин, порывы в срок и между сроками (в фигурных скобках) и направление, откуда дует ветер: С - северный, СВ - северо-восточный, В - восточный, ЮВ - юго-восточный, Ю - южный, ЮЗ - юго-западный, З - западный, СЗ - северо-западный.
Видимость - горизонтальная дальность видимости в метрах или километрах. При видимости от 1 до 10 км при отсутствии осадков обычно наблюдается дымка, при ухудшении видимости до 1 км и менее - туман. В сухую погоду видимость может ухудшаться дымом, пылью или мглою.
Явления - указаны атмосферные явления, наблюдавшиеся в срок или в последний час перед сроком; фигурными скобками обозначены явления, наблюдавшиеся между сроками (за 1-3 часа до срока); квадратными скобками обозначены град или гололедные отложения с указанием их диаметра в мм.
Облачность - указаны через наклонную черту общая и нижняя облачность в баллах и высота нижней границы облаков в метрах; квадратными скобками обозначены формы облаков: Ci - перистые, Cs - перисто-слоистые, Cc - перисто-кучевые, Ac - высококучевые, As - высокослоистые, Sc - слоисто-кучевые, Ns - слоисто-дождевые, Cu - кучевые, Cb - кучево-дождевые. Подробнее классификацию облаков см. в Атласе облаков (PDF).
T - Температура воздуха - температура, измеренная на высоте 2 м над землей.
Td - Температура точки росы - температура, при понижении до которой содержащийся в воздухе водяной пар достигнет насыщения.
f - Относительная влажность воздуха - влажноcть воздуха, измеренная на высоте 2 м над землей.
Te - Эффективная температура - температура, которую ощущает одетый по сезону человек в тени. Характеристика душности погоды. При расчете учитывается влияние влажности воздуха и скорости ветра на теплоощущения человека.
Tes - Эффективная температура на солнце - температура, которую ощущает человек, с поправкой на солнечный нагрев. Характеристика знойности погоды. Зависит от высоты солнца над горизонтом, облачности и скорости ветра. Ночью, в пасмурную погоду, а также при ветре 12 м/с и более поправка равна нулю.
P - Атмосферное давление - приведенное к уровню моря атмосферное давление.
Po - Атмосферное давление - измеренное на уровне метеостанции атмосферное давление.
Tmin - Минимальная температура - минимум температуры воздуха на высоте 2 м над землей.
Tmax - Максимальная температура - максимум температуры воздуха на высоте 2 м над землей.
R - Количество осадков - Количество выпавших осадков за период времени, мм. При наведении курсора мыши на число - период времени, за который выпало указанное количество осадков.
R24 - Количество осадков - Количество выпавших осадков за 24 часа, мм.
S - Снежный покров - Высота снежного покрова, см. При наведении курсора мыши на число - состояние снежного покрова и степень покрытия местности в баллах.